Showing default

COSMOS 2169, 21783

Orbit data source: Space-Track

COSMOS 2169, 21783 is a payload satellite owned by UNKS RF (CIS) in LEO that was launched on Tue, 12 Nov 1991 UTC via a TSIKLON-3 launch vehicle from the Plesetsk Missile And Space Complex (PKMTR). Payloads include a variety of satellites, spacecraft, and rockets equipped with specific instruments for various scientific and technological missions. These include communications satellites like Starlink; space stations such as the ISS; scientific satellites like the Hubble; Earth observation satellites from companies like Planet Labs, Umbra, and HawkEye 360; GPS; miniature CubeSats for education and research; and military/defense satellites.

Loading next visibility...
COSMOS 2169 details
Identifier
21783, 1991-077E
Orbit
LEO
Last TLE update11 hours ago
Origin
Flag of CISUNKS RF (CIS)
ManufacturerNPO PM
MissionDefense Communications
Bus & MotorSTRELA-3, Unknown motor
Mass225 kg wet, 225 kg dry
Launch date (UTC)
1991-11-12 (33 years ago)
Launch vehicle
TSIKLON-3
Launch site
Plesetsk Missile And Space Complex (PKMTR)
Object type
Payload
Rocket body
Debris
Shape & HBRCyl, 1.6 m
Radar Cross Section1.257 m², Medium (>0.1 m² and < 1m²)

Expand to show TLE details & history

TLE from 11 hours ago
0 COSMOS 2169
1 21783U 91077E   24361.54727297  .00000064  00000-0  27945-3 0  9994
2 21783  82.6026 192.9108 0018488 117.8543 242.4426 12.66293854530744
Epoch: 2024-12-26T13:08Z
Definitive object data (Epoch: 2024-12-26T13:08:04.384Z)
Latitude-0.00005°
Longitude-99.63258°
Altitude1,406.482 km
Speed7.154 km/s
True Right ascension12h 51m 38s
True Declination0° 00' 00"
Sunlit
Object was in daylight at TLE epoch
Visualization TLE readout
Latitude-33.88157°
Longitude85.06114°
Altitude1,411.462 km
Speed7.153 km/s
Apparent Right ascension04h 21m 57s
Apparent Declination-68° 08' 16"
Sunlit
Object is in daylight
Visualization observer readout
Local Sidereal Time23:07:46
Azimuth154.328° SSE
Elevation-32.601°
Doppler factor1
Orbital elements
Apogee altitude1,408.758 km
Perigee altitude1,380.018 km
Semi-major axis7,772.525 km
Eccentricity0.0018488
Inclination82.6026°
RAAN192.9108°
Arg. of periapsis117.8543°
True anomaly242.25498°
Mean anomaly242.4426°
Eccentric anomaly242.34877°
Mean motion3.16738 °/min
BSTAR0.00027945
Orbital period113.66 mins
Loading maneuver chart data...
Loading historical data...
Loading historical data...
Loading historical data...
Loading historical data...
Loading historical data...
Loading historical data...
Loading historical data...

COSMOS 2169 Visibility forecast

Observer location: undefined°, undefined

Span
Click to sort rows by Start time (UTC) header in descending order
Start Az.
Max El. time (UTC)
Max El. Az.
Max El.
End time (UTC)
End Az.
15 mins2024-12-27 01:07:24.426Z348.822° N2024-12-27 01:14:24.426Z293.499° NW43.964°2024-12-27 01:22:24.426Z182.428° SSW
4 mins2024-12-27 03:06:24.426Z296.437° NW2024-12-27 03:08:24.426Z281.224° WNW12.112°2024-12-27 03:10:24.426Z266.423° W
9 mins2024-12-27 12:02:24.426Z112.33° ESE2024-12-27 12:06:24.426Z78.652° E18.799°2024-12-27 12:11:24.426Z39.361° NE
14 mins2024-12-27 13:53:24.426Z193.116° SSW2024-12-27 14:00:24.426Z311.183° NW44.066°2024-12-27 14:07:24.426Z4.383° NNE
6 mins2024-12-27 15:53:24.426Z278.606° WNW2024-12-27 15:56:24.426Z302.072° NW13.928°2024-12-27 15:59:24.426Z324.821° NNW
|